Location: Almena City Lake
(39.8850°N, 99.6804°W)
Time: 10:26:32
(UTC+00:00)

Cosmos 1607 - Pass Details

Date: 18 February 2020
Orbit: 920 x 982 km, 65.0° (Epoch: 08 April)

Event Time Altitude Azimuth Distance (km) Brightness Sun altitude
Rises 01:50:51 0° 329° (NNW) 3,634 7.4 -18.7°
Reaches altitude 10° 01:53:24 10° 332° (NNW) 2,694 6.7 -19.2°
Maximum altitude 01:59:43 74° 57° (ENE) 1,006 3.9 -20.4°
Enters shadow 02:03:37 25° 139° (SE) 1,847 5.1 -21.1°
